Theta_e
327 329 330 331 331 331 331 331 332 336 332 330 331 332 332 334 336 337 337 334 336 336 336 334 334 335 332 329 331 332 331 333 331 331 332 344 344 344 343 345 343 347 344
322 325 325 327 327 328 328 329 332 332 331 331 328 327 329 329 331 331 330 328 327 327 327 325 324 323 329 332 329 332 331 333 332 332 336 336 341 345 340 344 342 344 346
320 320 320 321 323 326 328 329 330 330 331 329 327 326 326 325 325 327 327 325 325 325 325 325 324 325 327 325 326 325 325 324 326 325 325 330 335 342 340 342 342 343 342
315 316 317 320 321 322 324 326 329 329 329 329 327 326 325 325 323 325 325 325 326 325 326 325 324 323 325 325 324 324 323 323 323 320 321 324 329 338 338 334 334 339 337
313 313 310 313 318 320 321 321 323 324 326 327 328 328 326 325 323 324 325 327 327 326 327 326 326 324 320 319 317 321 322 319 317 317 318 319 321 331 332 334 335 337 333
311 311 311 310 311 314 316 319 321 321 323 325 327 327 327 324 311 309 322 327 327 326 325 327 326 320 319 314 313 312 316 320 319 316 315 317 324 326 330 334 334 330 326
309 310 310 310 309 309 312 314 316 318 323 324 325 326 329 332 306 305 307 328 328 327 327 326 324 321 319 321 313 310 310 308 310 321 319 320 322 324 331 336 331 329 332
308 308 309 309 309 309 311 313 318 319 319 320 323 325 327 328 306 302 304 328 331 329 328 328 327 324 322 321 321 320 320 321 323 322 325 326 329 331 331 335 331 332 339
307 307 308 309 309 309 309 310 315 314 317 319 320 322 324 325 305 301 306 324 324 327 325 327 326 325 311 302 319 319 319 319 314 307 306 306 303 301 308 328 333 332 331
305 306 307 309 308 308 309 310 311 312 313 315 317 320 316 323 306 300 306 322 323 322 326 327 308 317 304 300 319 318 316 318 319 320 325 318 313 318 306 334 338 329 330
305 306 306 308 308 309 309 309 309 309 310 312 314 318 319 320 320 299 299 321 320 320 321 322 323 302 301 298 300 318 316 316 314 316 318 319 323 327 330 335 334 334 330
302 302 303 304 305 305 306 307 307 308 307 309 310 312 314 320 307 301 298 300 313 321 321 321 321 299 299 298 301 303 299 300 314 313 315 316 320 326 332 332 331 332 340
298 298 299 300 301 302 302 302 302 304 304 306 306 307 310 313 317 302 297 297 299 315 320 315 304 296 296 298 297 298 295 312 313 312 313 316 322 326 332 330 335 337 338
297 297 298 299 299 300 301 301 300 300 301 302 305 305 308 311 314 316 314 309 300 306 309 315 310 306 303 308 309 307 312 313 313 313 315 319 321 327 327 329 332 332 334
296 297 297 298 298 298 298 299 300 303 302 302 304 306 307 307 309 306 309 315 315 311 312 316 314 313 313 313 313 314 314 316 315 317 317 318 319 327 328 329 329 333 329
294 295 295 295 296 297 298 299 296 295 295 294 294 297 303 298 294 295 295 296 297 298 309 312 312 313 313 312 312 312 314 312 317 318 319 318 324 324 325 327 330 331 329
294 294 293 293 293 292 293 293 293 296 294 294 293 293 293 295 294 293 294 293 293 295 309 310 310 311 311 311 312 313 313 316 320 319 320 324 328 327 321 329 329 329 327
293 292 292 292 292 292 293 293 293 294 294 295 294 294 293 293 292 293 292 292 305 302 307 307 308 310 312 313 313 314 317 318 319 321 321 328 327 326 327 329 329 328 326
291 290 291 292 292 292 294 294 294 294 294 295 297 295 293 293 292 292 292 298 302 304 305 307 310 312 313 314 315 316 318 319 320 322 324 326 328 330 329 329 328 308 313
290 289 289 291 292 293 293 293 293 294 294 295 296 297 299 293 293 294 296 298 301 306 308 308 311 312 313 314 319 319 319 320 323 324 324 329 326 326 329 327 325 325 324
289 290 288 290 290 291 292 293 294 295 296 296 297 298 295 298 297 297 298 300 302 306 309 311 310 312 313 314 318 317 320 324 324 324 326 328 326 330 330 328 325 324 323
290 290 290 290 292 294 299 299 298 300 304 302 298 293 290 301 300 300 300 304 305 306 310 311 312 313 314 315 318 321 323 322 324 326 328 328 331 329 327 326 325 324 324
290 291 292 297 303 298 301 302 304 308 306 302 299 299 300 300 301 303 304 308 306 307 311 313 314 316 318 322 325 325 325 323 328 328 327 331 330 328 327 324 323 323 323
294 296 304 303 302 302 301 301 300 297 304 304 305 306 307 308 309 309 310 311 312 312 313 314 317 318 317 323 327 325 330 330 328 329 331 332 330 322 326 324 323 325 324
305 302 300 300 300 300 299 298 298 298 298 299 301 302 305 307 308 309 311 314 316 316 316 314 312 315 323 326 325 327 313 297 321 315 333 332 328 328 327 326 324 322 320
300 299 297 298 296 295 295 295 295 295 295 295 295 296 297 298 300 300 300 301 301 301 301 304 310 316 320 319 317 297 294 298 310 302 330 330 328 327 324 321 319 315 310
Wind_Speed
7 7 9 10 11 10 11 12 12 10 12 11 12 12 12 11 11 10 12 10 11 11 9 8 11 9 8 9 8 8 9 10 9 13 12 4 9 8 5 3 7 10 9
6 3 5 6 6 7 7 8 10 11 10 11 13 11 12 12 12 13 13 11 11 10 10 9 9 7 8 8 7 9 9 9 8 13 11 10 12 9 7 5 8 9 11
9 7 10 9 6 6 7 10 8 9 9 9 11 12 12 14 13 13 13 12 11 10 8 8 6 6 5 5 5 7 7 8 9 12 12 10 9 8 6 8 7 9 7
8 9 7 8 10 9 9 8 10 12 12 13 13 15 15 14 14 14 13 12 11 9 8 7 6 6 6 5 6 7 8 8 9 11 12 11 10 7 6 6 5 6 6
10 10 7 8 12 10 9 7 8 8 12 14 12 15 16 15 13 16 15 14 12 11 10 9 9 8 3 5 7 8 9 10 10 11 11 11 10 6 7 8 8 7 6
11 10 8 3 7 12 11 12 10 11 15 15 16 18 18 14 15 16 15 14 14 14 12 12 11 9 9 11 11 12 12 12 13 12 13 12 12 11 10 8 7 4 3
13 12 12 9 9 7 10 10 10 13 11 15 15 17 18 17 12 18 17 15 14 15 14 13 12 10 10 11 11 13 14 16 16 14 16 14 15 13 13 11 8 6 9
15 14 14 14 13 12 11 11 12 9 11 12 13 14 16 16 11 16 17 18 15 16 16 16 15 13 11 11 11 12 13 12 12 11 13 13 14 13 14 13 10 10 7
16 16 16 16 16 15 15 15 12 13 15 14 13 14 12 15 12 15 14 17 18 18 18 18 17 15 13 11 12 13 13 13 10 13 17 16 15 18 17 12 8 7 7
18 18 18 18 18 17 17 16 15 15 16 14 16 17 17 17 13 15 16 14 17 15 16 17 12 16 13 13 13 12 12 13 12 13 11 11 12 10 10 11 5 7 5
21 20 19 19 19 18 18 17 16 17 17 17 18 17 18 17 17 16 19 16 15 14 14 14 13 20 17 12 14 13 12 11 12 12 11 10 11 8 7 9 7 7 5
19 20 19 19 17 17 21 20 20 18 19 19 19 17 16 17 17 15 20 22 17 15 15 14 13 19 19 17 13 15 13 8 11 10 10 11 10 7 7 8 9 7 7
18 17 18 19 18 15 16 16 14 16 17 17 16 17 17 16 16 20 21 21 22 15 15 14 9 13 14 11 14 13 6 10 11 11 11 11 8 8 6 6 9 8 8
16 16 15 16 16 15 12 13 13 14 14 16 17 17 16 15 15 14 15 14 18 15 15 11 8 9 10 10 9 13 12 12 13 13 11 10 8 6 7 6 7 7 7
16 16 16 13 14 14 15 14 14 15 13 12 14 15 15 16 15 13 14 16 15 16 14 14 15 14 14 14 13 14 13 11 13 11 11 9 9 8 6 7 5 8 8
16 13 11 11 12 12 11 12 17 21 19 19 22 17 12 13 11 5 8 8 10 14 14 15 15 15 15 14 14 14 12 13 12 11 10 9 9 6 7 7 8 10 9
14 13 11 13 11 11 12 12 13 13 22 26 25 21 21 24 16 6 7 8 11 12 14 15 15 15 14 15 14 13 13 11 11 11 10 10 9 8 8 10 10 9 7
14 20 12 11 11 12 12 13 12 12 12 12 24 23 29 27 22 22 8 6 10 11 15 15 14 14 12 12 13 13 10 10 10 11 9 9 8 9 12 12 8 7 8
12 10 10 10 12 14 12 13 13 13 13 12 10 13 25 25 27 24 20 8 10 11 12 13 13 12 13 12 12 10 11 12 11 9 8 8 8 11 9 9 8 6 6
11 20 18 12 11 12 11 12 11 11 11 11 10 12 11 13 12 13 13 14 12 13 12 15 11 9 8 8 11 9 10 11 9 9 9 10 8 7 9 11 9 10 8
9 11 14 11 11 11 11 12 9 9 10 11 12 12 14 12 12 13 12 15 11 11 14 11 11 11 11 11 11 10 11 10 9 9 8 9 9 11 9 8 9 9 8
9 10 9 9 10 9 10 9 8 9 5 4 2 2 19 11 11 12 12 13 16 11 11 9 8 10 11 10 11 13 10 9 10 9 10 10 11 11 10 9 8 8 7
8 9 8 8 3 4 5 5 4 4 8 7 7 9 9 9 11 12 13 14 12 12 12 10 11 12 10 9 10 10 10 10 10 10 10 11 10 11 10 9 8 8 8
8 7 3 6 6 6 7 7 7 8 7 7 6 6 9 12 12 14 14 14 13 13 13 13 12 11 9 12 10 6 10 9 7 9 13 12 12 11 9 7 6 10 9
6 8 7 7 8 8 8 8 8 9 9 8 8 8 8 8 8 6 5 7 9 10 11 7 8 14 20 17 9 11 10 7 9 11 10 14 14 13 10 9 10 10 11
9 10 8 7 9 9 7 8 9 9 9 9 8 7 8 8 8 7 6 7 7 6 4 1 9 12 11 7 10 10 10 9 8 10 13 12 10 10 10 13 14 10 11
Wind_Direction
321 298 266 235 215 210 206 197 186 184 184 189 200 201 209 208 211 213 240 229 211 224 230 223 226 244 251 252 246 251 258 248 243 266 273 264 258 247 235 243 256 256 239
14 300 265 266 255 235 220 212 195 194 193 200 190 204 206 207 209 215 218 221 219 210 211 218 223 227 228 244 260 268 280 295 267 268 277 284 258 264 242 222 261 273 254
325 27 8 358 320 283 235 232 209 203 205 217 200 205 206 210 207 209 212 207 196 196 196 202 207 213 228 279 289 293 285 279 271 272 277 268 267 273 253 250 255 260 248
344 317 334 344 344 347 316 278 257 230 209 225 213 210 210 209 204 204 204 202 198 201 202 214 218 225 235 245 263 274 266 276 283 275 271 271 267 250 243 256 249 230 232
332 341 344 339 311 313 318 314 286 274 256 234 224 223 219 215 207 210 210 210 208 215 211 222 219 239 310 277 281 289 298 279 284 287 285 278 267 241 251 270 257 261 221
307 304 308 254 273 301 312 299 291 262 252 245 232 240 224 222 204 194 209 212 213 217 221 222 237 190 222 228 241 247 264 276 278 282 284 286 299 287 270 267 260 229 222
295 291 286 270 274 261 274 288 282 288 278 253 239 240 240 232 207 195 200 210 211 219 223 227 229 235 213 252 232 230 239 231 237 263 275 275 281 282 291 281 233 214 238
284 282 277 275 268 255 254 254 247 239 250 259 249 241 242 235 209 198 201 213 216 217 221 223 228 234 235 250 268 276 280 282 268 255 258 268 265 271 272 279 238 230 234
275 275 272 268 266 263 255 246 250 253 248 246 241 239 235 240 210 201 195 225 226 226 220 224 221 226 226 199 248 267 280 286 274 246 250 256 271 271 259 251 213 207 212
276 278 274 265 264 260 259 261 260 255 254 253 248 240 239 238 207 194 197 229 224 222 220 220 206 231 210 186 231 255 272 284 294 293 283 278 248 257 255 253 251 241 222
276 274 270 264 260 261 260 258 255 255 257 253 248 243 242 233 225 191 191 223 229 207 222 210 221 198 227 212 221 246 256 281 289 284 279 288 287 253 219 226 236 229 234
281 281 276 271 268 263 253 246 241 242 246 248 245 244 240 235 224 196 194 210 224 234 219 221 229 180 201 205 215 238 249 254 268 269 270 268 268 263 209 215 226 243 242
277 264 261 262 257 255 253 257 259 255 258 249 239 238 239 234 223 203 195 205 223 231 235 230 217 170 181 197 226 247 231 250 258 260 261 263 265 254 198 206 223 229 232
272 269 256 252 259 253 251 250 245 240 236 244 247 242 244 234 228 224 203 206 222 221 240 227 225 233 231 252 229 221 235 246 252 256 258 265 274 214 193 188 199 189 198
267 263 263 260 254 251 241 240 240 245 245 242 249 254 241 235 242 241 226 202 213 212 213 225 225 226 234 236 235 242 251 250 239 235 248 251 256 192 185 179 192 204 199
266 262 259 259 255 253 253 251 240 240 242 239 250 259 269 287 304 345 284 229 186 178 205 229 225 230 234 231 238 244 241 233 241 239 237 238 213 184 181 183 201 213 203
267 264 258 255 254 252 248 250 254 244 234 236 239 240 238 247 268 285 226 239 165 165 217 214 228 236 236 237 237 238 240 237 236 232 232 225 193 183 177 199 204 198 194
264 262 258 254 252 249 246 243 241 242 239 232 226 227 232 231 231 239 218 200 220 215 230 229 236 234 232 239 237 232 237 238 232 227 224 204 177 186 192 199 190 189 177
269 266 258 255 249 249 250 248 245 241 243 242 233 214 220 216 217 216 212 219 227 216 216 227 223 226 219 217 230 221 220 231 226 214 193 192 197 201 194 176 175 157 143
269 259 253 258 262 260 256 254 252 249 246 243 231 219 197 189 194 196 201 204 217 216 207 213 219 213 221 220 215 223 227 214 207 202 190 195 193 191 184 169 170 165 183
273 274 270 264 261 257 249 246 242 237 234 232 228 216 191 180 183 187 185 192 208 209 218 210 198 201 213 218 226 221 224 207 200 182 192 182 178 186 174 168 169 171 177
269 269 271 270 264 264 266 215 227 236 205 132 144 167 152 170 169 171 179 190 201 208 232 223 204 211 219 214 216 216 209 193 190 180 186 179 175 167 159 165 160 160 166
266 270 280 275 278 25 27 34 39 66 106 104 123 129 140 151 158 162 171 184 182 196 224 213 219 220 217 214 244 209 197 186 190 182 179 170 162 161 159 163 167 164 169
272 283 350 37 33 37 41 44 52 51 78 111 86 79 147 155 155 165 170 176 186 202 207 209 222 225 231 241 208 170 180 176 178 173 171 164 160 160 152 161 152 137 114
40 45 37 37 42 44 49 51 52 52 52 51 55 60 72 84 86 94 110 170 189 199 209 226 246 235 208 175 163 159 148 160 195 185 165 148 144 157 130 114 101 102 117
44 47 39 37 46 45 36 40 56 53 50 49 53 61 70 72 79 83 86 93 97 90 114 97 81 103 121 112 112 108 109 148 142 137 137 133 137 112 105 115 120 116 113